Vorticity
9 3 1 -2 5 0 9 6 7 9 10 14 16 12 13 11 9 9 9 8 9 9
7 7 0 2 7 3 7 7 8 11 15 16 16 14 14 14 10 10 9 8 8 9
7 5 -0 7 3 -0 6 8 9 14 17 14 12 11 12 14 13 11 8 8 9 15
4 -1 8 7 2 1 7 9 14 20 14 11 10 11 11 12 12 10 9 12 13 22
4 4 5 6 3 5 8 11 20 12 10 9 9 7 12 13 12 10 11 16 9 14
5 7 4 5 6 6 11 17 12 9 6 8 11 11 13 17 12 8 9 6 10 16
11 2 1 5 3 8 16 14 8 7 11 12 10 12 14 14 12 11 14 8 6 6
-7 -9 13 4 5 16 13 10 8 10 11 11 13 8 8 12 22 18 14 13 15 25
-10 36 3 4 11 14 10 7 13 8 10 12 9 13 13 15 15 14 22 26 19 11
4 13 6 11 15 10 10 8 9 11 12 12 9 7 12 16 18 20 18 13 20 14
7 6 16 15 7 10 17 15 13 11 11 14 9 5 11 14 13 9 6 11 12 14
16 22 9 7 11 12 11 12 11 17 5 8 11 13 7 10 10 8 16 14 17 10
13 6 7 13 12 11 11 9 10 15 9 7 15 4 -7 12 11 15 10 13 15 19
12 7 11 9 9 9 9 12 13 14 18 5 16 15 12 6 9 11 8 19 19 17
Height
3101 3100 3099 3098 3097 3096 3094 3093 3090 3088 3086 3083 3081 3080 3080 3079 3079 3079 3078 3078 3078 3078
3093 3092 3091 3089 3088 3086 3085 3083 3081 3078 3076 3074 3072 3071 3071 3071 3072 3071 3071 3070 3070 3070
3084 3083 3082 3081 3079 3078 3076 3073 3072 3069 3068 3066 3065 3064 3063 3062 3062 3062 3062 3063 3063 3063
3077 3076 3075 3073 3071 3069 3067 3066 3064 3061 3060 3059 3057 3056 3055 3054 3054 3054 3053 3053 3053 3053
3068 3068 3067 3065 3062 3061 3060 3058 3055 3054 3053 3051 3049 3047 3046 3045 3044 3044 3044 3045 3045 3043
3061 3060 3058 3057 3055 3054 3052 3049 3048 3046 3045 3042 3040 3038 3037 3036 3035 3035 3035 3036 3036 3036
3050 3047 3046 3047 3048 3047 3044 3042 3040 3037 3035 3034 3033 3031 3029 3027 3026 3025 3025 3026 3027 3027
3037 3037 3037 3039 3039 3038 3036 3034 3031 3029 3029 3027 3026 3025 3022 3021 3019 3018 3016 3016 3017 3019
3028 3028 3029 3030 3030 3028 3027 3025 3024 3022 3021 3020 3019 3017 3016 3014 3012 3010 3009 3007 3008 3011
3017 3018 3020 3022 3022 3021 3020 3018 3016 3015 3014 3014 3012 3011 3010 3008 3006 3004 3005 3004 3004 3005
3011 3013 3014 3014 3014 3013 3012 3011 3010 3009 3008 3007 3006 3005 3004 3003 3002 3001 3001 3001 3001 3001
3004 3006 3008 3008 3008 3007 3006 3005 3003 3002 3002 3001 3000 3000 2999 2999 2997 2997 2998 2997 2997 2998
2997 2999 3001 3002 3001 3001 3000 2998 2997 2995 2995 2994 2995 2995 2995 2995 2994 2994 2995 2994 2993 2994
2990 2992 2994 2994 2994 2993 2992 2990 2990 2989 2988 2987 2989 2990 2990 2990 2990 2991 2991 2991 2991 2992